If you wish to contribute or participate in the discussions about articles you are invited to join SKYbrary as a registered user

 Actions

Allen Army Airfield

From SKYbrary Wiki

PABI
Airport
ICAO: PABI – IATA: BIG
Summary
Name Allen Army Airfield
Region North America
Territory Alaska US.gif
Location Delta Junction, Alaska
Serving Fort Greely
Elevation 393.497 m
1,291 ft
1,291 ft393.497 m
Type medium airport
Coordinates 63° 59' 40.37" N, 145° 43' 17.91" W
Runways
Designator Length Width Surface ROPS
1/19 2743 m8,999.344 ft
46 m150.919 ft
ASPH-G /
7/25 1426 m4,678.478 ft
50 m164.042 ft
ASPH-G /
10/28 1864 m6,115.486 ft
46 m150.919 ft
ASPH-G /


METAR
Observation PABI 142153Z 26004KT 10SM FEW014 FEW070 SCT120 BKN140 M21/M22 A2930 RMK AO2 SLP981 T12061222
Station Delta Junction/Ft Greely, Allen Army Airfield
Date/Time 14 December 2018 21:53:00
Wind direction 260°
Wind speed 04 kts
Lowest cloud amount few clouds
Temperature
Dew point
Humidity 86%
QNH hPa
Weather condition n/a

Maps

Terrain

Loading map...

Airport Layout

Loading map...


Accidents & Serious Incidents at or in vicinity of PABI

None on SKYbrary